NOAA 16 DEB

Satellite information

Favourite Embed

Satellite Type and Status

DEBRISIN ORBIT

Key statistics

Satellite NOAA 16 DEB at a glance.

Uptime

9215

Days in orbit

Revolutions

≈ 14.5

Per day

Orbit

SSO

Sun Synchronous Orbit

Inclination

98.9

Latest

Satellite identification and parameters

Extended collection of information and parameters for NOAA 16 DEB.

Object identification

Identified? True

Debris? True

Object name: NOAA 16 DEB

International designator: 2000-055TH

Object number (NORAD): 42413

Object ID (CCSDS): 42413

Country: UNITED STATES OF AMERICA (US)

Current information (Y/N): Y

RCS size: SMALL

Orbital parameters

Period: 99.642 minutes

Inclination: 98.9256 deg

SMA: 7119.609 km

Apoapsis: 757.029 km

Periapsis: 725.919 km

RAAN: 142.4887 deg

Eccentricy: 0.00218484

Argument of periapsis: 315.8024 deg

Mean anomaly: 44.1419 deg

Mean motion: 14.45168773 rev/day

Mean motion (dot): 0.00011209 rev/day2

B* drag term: 0.0032008124 1/REarth

Two-line elements (TLE)

Creation date: Dec. 13, 2025, 4:32 a.m.

Reference frame: TEME

Reference center: EARTH

Epoch: Dec. 12, 2025, 9:12 p.m. UTC

TLE line 0: 0 NOAA 16 DEB

TLE line 1: 1 42413U 00055TH 25346.88378938 .00011209 00000-0 32008-2 0 9996

TLE line 2: 2 42413 98.9256 142.4887 0021848 315.8024 44.1419 14.45168773508557

Live tracking on map

Real-time ground track for satellite NOAA 16 DEB.

In-orbit conjunctions

A list of the most updated potential collisions computed for object NOAA 16 DEB.

Target Orbit TCA Probability of collision Miss distance Type
SL-8 R/B LEO 2025-11-07 01:24:31 0.0001154297 634.0 (m) ROCKET BODY
CZ-2C R/B SSO 2024-06-02 12:45:44 0.0001914315 166.0 (m) ROCKET BODY

Associated space launch

The NOAA K, L and M POES satellites begin the fifth generation of improved environmental monitoring in support of NOAA missions. The instrument payload has significant improvements and additions/deletions. The instrument changes have effected the spacecraft subsystems and data formats.

NOAA 16 DEB was lifted into orbit during the mission ‘Titan II SLV | NOAA 16’, on board a Titan II SLV space rocket.

The launch took place on Sept. 21, 2000, 10:22 a.m. from Space Launch Complex 4W.

For more information about the launch, click the button.

Launch to space Titan II SLV | NOAA 16
Titan II SLV | NOAA 16

Agency: N/A

Status: Launch Successful

Launch date: Sept. 21, 2000, 10:22 a.m. UTC

Rocket: Titan II SLV

Launch pad: Space Launch Complex 4W

Location: Vandenberg SFB, CA, USA

...

Latest news about this satellite

There are no fresh news available about this satellite. Check back as we update our databases every day.


Newsletter sign-up

Weekly statistics, charts and insights to help you stay on top of the space industry.